| time (UTC) | temp F | wind direction | speed MPH | gust MPH | rain 1hr in | rain 24hr in | rain mn in | humidity % | barometer mb |
| 20260509003028 | 60 | 266 | 0.0 | 5.0 | 0.00 | 0.00 | 0.00 | 57 | 1021.9 |
| 20260509001528 | 60 | 153 | 1.0 | 8.0 | 0.00 | 0.00 | 0.00 | 53 | 1022.1 |
| 20260509000020 | 60 | 204 | 0.0 | 4.0 | 0.00 | 0.00 | 0.00 | 56 | 1021.9 |
| 20260508234525 | 60 | 213 | 0.0 | 9.0 | 0.00 | 0.00 | 0.00 | 56 | 1022.1 |
| 20260508233026 | 61 | 235 | 1.0 | 6.0 | 0.00 | 0.00 | 0.00 | 56 | 1022.1 |
| 20260508231528 | 60 | 151 | 3.0 | 8.0 | 0.00 | 0.00 | 0.00 | 57 | 1022.1 |
| 20260508230038 | 60 | 100 | 0.0 | 8.0 | 0.00 | 0.00 | 0.00 | 58 | 1022.0 |
| 20260508224528 | 59 | 136 | 3.0 | 8.0 | 0.00 | 0.00 | 0.00 | 59 | 1022.1 |
| 20260508223025 | 58 | 281 | 1.0 | 3.0 | 0.00 | 0.00 | 0.00 | 60 | 1022.1 |
| 20260508221539 | 59 | 155 | 1.0 | 9.0 | 0.00 | 0.00 | 0.00 | 58 | 1022.2 |
| 20260508220029 | 60 | 209 | 3.0 | 8.0 | 0.00 | 0.00 | 0.00 | 56 | 1022.1 |
| 20260508214528 | 59 | 169 | 1.0 | 9.0 | 0.00 | 0.00 | 0.00 | 60 | 1022.1 |
| 20260508213025 | 58 | 15 | 1.0 | 5.0 | 0.00 | 0.00 | 0.00 | 62 | 1021.9 |
| 20260508211526 | 57 | 247 | 2.0 | 12.0 | 0.00 | 0.00 | 0.00 | 62 | 1022.1 |
| 20260508210026 | 57 | 248 | 5.0 | 12.0 | 0.00 | 0.00 | 0.00 | 60 | 1022.1 |
| 20260508204528 | 56 | 141 | 3.0 | 9.0 | 0.00 | 0.00 | 0.00 | 65 | 1022.1 |
| 20260508203027 | 56 | 239 | 0.0 | 8.0 | 0.00 | 0.00 | 0.00 | 67 | 1022.0 |
| 20260508201522 | 56 | 149 | 1.0 | 10.0 | 0.00 | 0.00 | 0.00 | 71 | 1021.9 |
| 20260508200006 | 55 | 277 | 0.0 | 6.0 | 0.00 | 0.00 | 0.00 | 70 | 1021.8 |
| 20260508194512 | 54 | 316 | 0.0 | 8.0 | 0.00 | 0.00 | 0.00 | 71 | 1021.7 |
| 20260508193017 | 54 | 270 | 0.0 | 6.0 | 0.00 | 0.00 | 0.00 | 73 | 1021.8 |
| 20260508191523 | 53 | 211 | 1.0 | 8.0 | 0.00 | 0.00 | 0.00 | 74 | 1021.7 |
| 20260508190028 | 53 | 150 | 1.0 | 6.0 | 0.00 | 0.00 | 0.00 | 74 | 1021.7 |
| 20260508184508 | 53 | 189 | 0.0 | 4.0 | 0.00 | 0.00 | 0.00 | 76 | 1021.6 |
| 20260508183016 | 54 | 235 | 1.0 | 5.0 | 0.00 | 0.00 | 0.00 | 76 | 1021.4 |
| 20260508181520 | 53 | 173 | 2.0 | 7.0 | 0.00 | 0.00 | 0.00 | 76 | 1021.4 |
| 20260508180026 | 52 | 250 | 2.0 | 7.0 | 0.00 | 0.00 | 0.00 | 77 | 1021.2 |
| 20260508174535 | 53 | 79 | 2.0 | 9.0 | 0.00 | 0.00 | 0.00 | 76 | 1020.9 |
| 20260508173010 | 53 | 116 | 1.0 | 7.0 | 0.00 | 0.00 | 0.00 | 76 | 1020.5 |
| 20260508171518 | 52 | 325 | 0.0 | 2.0 | 0.00 | 0.00 | 0.00 | 80 | 1020.3 |
| 20260508170020 | 52 | 279 | 0.0 | 4.0 | 0.00 | 0.00 | 0.00 | 79 | 1020.3 |
| 20260508164529 | 52 | 145 | 0.0 | 4.0 | 0.00 | 0.00 | 0.00 | 80 | 1020.2 |
| 20260508163027 | 51 | 287 | 0.0 | 3.0 | 0.00 | 0.00 | 0.00 | 81 | 1020.0 |
| 20260508161519 | 51 | 146 | 2.0 | 7.0 | 0.00 | 0.00 | 0.00 | 80 | 1020.1 |
| 20260508160024 | 50 | 167 | 1.0 | 9.0 | 0.00 | 0.00 | 0.00 | 81 | 1020.3 |
| 20260508154528 | 51 | 193 | 0.0 | 10.0 | 0.00 | 0.00 | 0.00 | 83 | 1020.2 |
| 20260508153024 | 50 | 307 | 1.0 | 9.0 | 0.00 | 0.00 | 0.00 | 84 | 1020.2 |
| 20260508151530 | 50 | 28 | 0.0 | 10.0 | 0.00 | 0.00 | 0.00 | 86 | 1020.1 |
| 20260508150016 | 50 | 150 | 0.0 | 5.0 | 0.00 | 0.00 | 0.00 | 88 | 1019.9 |
| 20260508144521 | 49 | 246 | 0.0 | 5.0 | 0.00 | 0.00 | 0.00 | 89 | 1019.7 |
| 20260508143022 | 49 | 169 | 0.0 | 8.0 | 0.00 | 0.00 | 0.00 | 92 | 1019.2 |
| 20260508141528 | 47 | 148 | 0.0 | 2.0 | 0.00 | 0.00 | 0.00 | 93 | 1019.1 |
| 20260508140014 | 46 | 57 | 0.0 | 0.0 | 0.00 | 0.00 | 0.00 | 93 | 1018.6 |
| 20260508134517 | 46 | 57 | 0.0 | 0.0 | 0.00 | 0.00 | 0.00 | 93 | 1018.5 |
| 20260508133026 | 45 | 57 | 0.0 | 0.0 | 0.00 | 0.00 | 0.00 | 92 | 1018.3 |
| 20260508131523 | 45 | 57 | 0.0 | 0.0 | 0.00 | 0.00 | 0.00 | 92 | 1018.1 |
| 20260508130008 | 44 | 57 | 0.0 | 0.0 | 0.00 | 0.00 | 0.00 | 92 | 1018.0 |
| 20260508124514 | 44 | 57 | 0.0 | 0.0 | 0.00 | 0.00 | 0.00 | 92 | 1017.9 |
| 20260508123019 | 44 | 57 | 0.0 | 0.0 | 0.00 | 0.00 | 0.00 | 92 | 1017.8 |
| 20260508121523 | 44 | 57 | 0.0 | 0.0 | 0.00 | 0.00 | 0.00 | 92 | 1017.6 |
| 20260508120027 | 44 | 57 | 0.0 | 0.0 | 0.00 | 0.00 | 0.00 | 92 | 1017.6 |
| 20260508114512 | 44 | 57 | 0.0 | 0.0 | 0.00 | 0.00 | 0.00 | 92 | 1017.4 |
| 20260508113018 | 45 | 57 | 0.0 | 0.0 | 0.00 | 0.00 | 0.00 | 92 | 1017.4 |
| 20260508111522 | 45 | 57 | 0.0 | 0.0 | 0.00 | 0.00 | 0.00 | 92 | 1017.2 |
| 20260508110024 | 45 | 57 | 0.0 | 0.0 | 0.00 | 0.00 | 0.00 | 92 | 1017.2 |
| 20260508104538 | 45 | 57 | 0.0 | 0.0 | 0.00 | 0.00 | 0.00 | 92 | 1017.1 |
| 20260508103036 | 45 | 57 | 0.0 | 0.0 | 0.00 | 0.00 | 0.00 | 91 | 1016.9 |
| 20260508101527 | 45 | 57 | 0.0 | 0.0 | 0.00 | 0.00 | 0.00 | 92 | 1016.8 |
| 20260508100022 | 46 | 57 | 0.0 | 0.0 | 0.00 | 0.00 | 0.00 | 91 | 1016.8 |
| 20260508094525 | 46 | 57 | 0.0 | 0.0 | 0.00 | 0.00 | 0.00 | 91 | 1016.8 |
| 20260508093027 | 46 | 57 | 0.0 | 0.0 | 0.00 | 0.00 | 0.00 | 91 | 1016.7 |
| 20260508091529 | 46 | 57 | 0.0 | 0.0 | 0.00 | 0.00 | 0.00 | 91 | 1016.7 |
| 20260508090022 | 46 | 57 | 0.0 | 0.0 | 0.00 | 0.00 | 0.00 | 91 | 1016.8 |
| 20260508084522 | 46 | 57 | 0.0 | 0.0 | 0.00 | 0.00 | 0.00 | 91 | 1016.7 |
| 20260508083025 | 47 | 57 | 0.0 | 0.0 | 0.00 | 0.00 | 0.00 | 91 | 1016.9 |
| 20260508081527 | 47 | 57 | 0.0 | 0.0 | 0.00 | 0.00 | 0.00 | 91 | 1016.9 |
| 20260508080018 | 47 | 57 | 0.0 | 0.0 | 0.00 | 0.00 | 0.00 | 91 | 1017.0 |
| 20260508074519 | 47 | 57 | 0.0 | 0.0 | 0.00 | 0.00 | 0.00 | 91 | 1017.0 |
| 20260508073024 | 47 | 57 | 0.0 | 0.0 | 0.00 | 0.00 | 0.00 | 91 | 1017.0 |
| 20260508071508 | 47 | 57 | 0.0 | 0.0 | 0.00 | 0.00 | 0.00 | 90 | 1016.9 |
| 20260508070021 | 47 | 57 | 0.0 | 0.0 | 0.00 | 0.00 | 0.00 | 90 | 1017.1 |
| 20260508064519 | 47 | 57 | 0.0 | 0.0 | 0.00 | 0.00 | 0.00 | 90 | 1017.0 |
| 20260508063025 | 48 | 57 | 0.0 | 0.0 | 0.00 | 0.00 | 0.00 | 89 | 1017.0 |
| 20260508061508 | 48 | 57 | 0.0 | 0.0 | 0.00 | 0.00 | 0.00 | 89 | 1017.1 |
| 20260508060011 | 48 | 57 | 0.0 | 0.0 | 0.00 | 0.00 | 0.00 | 89 | 1017.1 |
| 20260508054515 | 49 | 57 | 0.0 | 0.0 | 0.00 | 0.00 | 0.00 | 89 | 1017.1 |
| 20260508053022 | 49 | 57 | 0.0 | 0.0 | 0.00 | 0.00 | 0.00 | 88 | 1017.2 |
| 20260508051526 | 50 | 57 | 0.0 | 0.0 | 0.00 | 0.00 | 0.00 | 88 | 1017.1 |
| 20260508050007 | 50 | 57 | 0.0 | 0.0 | 0.00 | 0.00 | 0.00 | 87 | 1017.1 |
| 20260508044513 | 51 | 57 | 0.0 | 0.0 | 0.00 | 0.00 | 0.00 | 87 | 1017.3 |
| 20260508043020 | 51 | 57 | 0.0 | 0.0 | 0.00 | 0.00 | 0.00 | 86 | 1017.4 |
| 20260508041525 | 52 | 57 | 0.0 | 0.0 | 0.00 | 0.00 | 0.00 | 86 | 1017.3 |
| 20260508040029 | 53 | 57 | 0.0 | 0.0 | 0.00 | 0.00 | 0.00 | 84 | 1017.2 |
| 20260508034513 | 54 | 57 | 0.0 | 0.0 | 0.00 | 0.00 | 0.00 | 84 | 1017.2 |
| 20260508033016 | 55 | 57 | 0.0 | 0.0 | 0.00 | 0.00 | 0.00 | 82 | 1017.2 |
| 20260508031522 | 56 | 57 | 0.0 | 0.0 | 0.00 | 0.00 | 0.00 | 81 | 1017.2 |
| 20260508030038 | 57 | 57 | 0.0 | 0.0 | 0.00 | 0.00 | 0.00 | 81 | 1017.2 |
| 20260508024532 | 58 | 57 | 0.0 | 0.0 | 0.00 | 0.00 | 0.00 | 80 | 1017.4 |
| 20260508023017 | 59 | 57 | 0.0 | 0.0 | 0.00 | 0.00 | 0.00 | 78 | 1017.5 |
| 20260508021518 | 59 | 57 | 0.0 | 0.0 | 0.00 | 0.00 | 0.00 | 74 | 1017.4 |
| 20260508020021 | 60 | 57 | 0.0 | 0.0 | 0.00 | 0.00 | 0.00 | 72 | 1017.4 |
| 20260508014525 | 60 | 57 | 0.0 | 0.0 | 0.00 | 0.00 | 0.00 | 73 | 1017.5 |
| 20260508013028 | 60 | 57 | 0.0 | 1.0 | 0.00 | 0.00 | 0.00 | 71 | 1017.6 |
| 20260508011512 | 60 | 57 | 0.0 | 1.0 | 0.00 | 0.00 | 0.00 | 70 | 1017.9 |
| 20260508010025 | 60 | 57 | 0.0 | 0.0 | 0.00 | 0.00 | 0.00 | 71 | 1018.1 |
| 20260508004527 | 60 | 57 | 0.0 | 1.0 | 0.00 | 0.00 | 0.00 | 70 | 1018.1 |